ニート彗星

312P/NEAT (2001)

English version
Home page
Updated on September 14, 2014

---------------------------------------------------------------------

・ プロフィール

符号 312P/2001 Q11
発見日 2001年8月18日
発見光度 18.9等
発見者 Maik Meyer (NEAT)

・ 軌道要素

Epoch 2001 June 20.0 TT = JDT 2452080.5
T 2001 June 22.35309 TT                                 MPC
q   1.8516587            (2000.0)            P               Q
n   0.15946158     Peri.  202.27569     +0.96905392     +0.15288044
a   3.3679477      Node   147.01179     -0.13597703     +0.98587431
e   0.4502116      Incl.   20.85242     -0.20602122     +0.06840622
P   6.18
From 29 observations 2001 Aug. 18-2014 Sept. 7, mean residual 0".5.

・ 光度変化

        m1 = 14.5 + 5 logΔ + 10.0 log r

---------------------------------------------------------------------

軌道要素はM.P.E.C. 2014-R91に掲載されたものです。
光度グラフはComet for Windowsで作成したものです。

---------------------------------------------------------------------

Copyright(C) Seiichi Yoshida (comet@aerith.net). All rights reserved.